Location: Holcomb Observatory and Planetarium
(39.8415°N, 86.1714°W)
Time: 14:05:19
(UTC-04:00)

Hubble Space Telescope - Visible Passes

Search period start: 04 May 2015 00:00
Search period end: 14 May 2015 00:00
Orbit: 542 x 546 km, 28.5° (Epoch: 04 May)

Date Brightness Start Highest point End Pass type
(mag) Time Alt. Az. Time Alt. Az. Time Alt. Az.
04 May 2.6 21:42:51 10° SW 21:45:32 17° S 21:47:00 14° SSE visible
05 May 2.6 21:34:07 10° SW 21:36:51 17° S 21:38:57 12° SE visible
06 May 2.7 21:25:27 10° SW 21:28:09 17° S 21:30:50 10° SE visible
07 May 2.7 21:16:50 10° SW 21:19:27 16° S 21:22:03 10° SSE visible
